Location: Pontbriand
(46.1542°N, 71.2542°W)
Time: 22:02:16
(UTC+00:00)

Envisat - Pass Details

Date: 02 December 2021
Orbit: 764 x 766 km, 98.2° (Epoch: 19 January)

Event Time Altitude Azimuth Distance (km) Brightness Sun altitude
Rises 21:23:15 0° 184° (S) 3,219 6.7 -4.3°
Reaches altitude 10° 21:25:40 10° 191° (S) 2,297 6.1 -4.6°
Maximum altitude 21:30:27 42° 262° (W) 1,084 4.5 -5.4°
Drops below altitude 10° 21:35:18 10° 333° (NNW) 2,314 5.5 -6.1°
Sets 21:37:44 0° 341° (NNW) 3,245 6.2 -6.5°
